Location: Central Falls
(41.8900°N, 71.3929°W)
Time: 01:06:22
(UTC+00:00)

Vanguard 3 - Pass Details

Date: 05 December 2023
Orbit: 508 x 3239 km, 33.4° (Epoch: 03 March)

Event Time Altitude Azimuth Distance (km) Brightness Sun altitude
Rises 00:17:23 0° 209° (SSW) 6,864 12.2 -33.3°
Reaches altitude 10° 00:23:49 10° 197° (SSW) 5,475 11.5 -34.5°
Enters shadow 00:33:28 22° 159° (SSE) 3,777 10.3 -36.3°
Maximum altitude 00:34:14 22° 154° (SSE) 3,700 - -36.4°
Drops below altitude 10° 00:41:43 10° 109° (ESE) 3,822 - -37.8°
Sets 00:45:09 0° 94° (E) 4,405 - -38.4°
